Regional Weather Roundup
Issued by NWS

Home | Current Version | Previous Version | Text Only | Print | Product List | Glossary Off
Versions: 1 2 3 4 5 6 7 8 9 10 11 12 13 14 15 16 17 18 19 20 21 22 23 24 25 26 27 28 29 30 31 32 33 34 35 36 37 38 39 40 41 42 43 44 45 46 47 48 49 50

000
ASUS43 KLOT 050712
RWRIL

ILLINOIS REGIONAL WEATHER ROUNDUP
NATIONAL WEATHER SERVICE CHICAGO/ROMEOVILLE IL
200 AM CDT SUN JUL 05 2015

NOTE: "FAIR" INDICATES FEW OR NO CLOUDS BELOW 12,000 FEET WITH NO
SIGNIFICANT WEATHER AND/OR OBSTRUCTIONS TO VISIBILITY.

* THESE STATIONS ARE NOT UNDER NWS QUALITY CONTROL. THEY ALSO MAY NOT
  REPORT WEATHER SUCH AS PRECIPITATION OR FOG.

ILZ001-002-007-009-015-016-024-050800-
NORTHWEST ILLINOIS

CITY           SKY/WX    TMP DP  RH WIND       PRES   REMARKS
MOLINE         CLEAR     63  59  87 CALM      30.03R
STERLING*      CLEAR     59  57  94 CALM      30.04S
SAVANNA*       CLEAR     61  59  93 CALM      30.04R
$$

ILZ003-004-008-010-011-017-018-050800-
NORTH CENTRAL ILLINOIS

CITY           SKY/WX    TMP DP  RH WIND       PRES   REMARKS
ROCKFORD       CLEAR     64  59  83 CALM      30.06R
FREEPORT*      CLEAR     60  58  92 S5        30.06R
ROCHELLE*      CLEAR     59  58  95 CALM      30.06R
DE KALB*       CLEAR     60  57  88 CALM      30.07R
PERU*          CLEAR     65  59  80 CALM      30.06R
$$

ILZ005-006-012>014-019>023-050800-
NORTHEAST ILLINOIS

CITY           SKY/WX    TMP DP  RH WIND       PRES   REMARKS
CHICAGO-OHARE  PTCLDY    66  57  72 CALM      30.04R SMOKE
CHICAGO-MIDWAY PTCLDY    69  58  67 CALM      30.04R SMOKE
AURORA         CLEAR     62  58  86 CALM      30.05R FOG
LANSING*         N/A     62  58  87 CALM      30.04F FOG
JOLIET*        CLEAR     62  60  94 CALM      30.06R FOG
WAUKEGAN       CLEAR     60  56  86 SW3       30.04R FOG
DUPAGE AIRPORT CLEAR     62  59  90 CALM      30.05R
KANKAKEE*      CLEAR     65  63  93 CALM      30.06S
WHEELING       CLEAR     64  57  78 CALM      30.06R HAZE
MORRIS*        CLEAR     64  61  90 CALM      30.03R
ROMEOVILLE*    CLEAR     64  58  83 CALM      30.05R HAZE
NORTHERLY ISL    N/A     66  60  81 CALM        N/A
$$

LMZ740>746-050800-
SOUTHERN LAKE MICHIGAN

STATION/POSITION SKY/WX   TEMP    WIND        PRES    VSBY  WAVE
                          AIR SEA DIR/SP/G                  HT/PER
                          (F)     (DEG/KT/KT) (MB)    (MI)  (FT/S)
HARRISON CRIB              67     170/  5/  6   N/A
BURNHAM HARBOR             67        CALM       N/A
CALUMET HARBOR             66        CALM       N/A
BURNS HARBOR               69     190/  6/  7 1017.9R
MICHIGAN CITY              69     130/  9/ 11   N/A
MICHIGAN CITY 6N           66 64  170/  4/  4   N/A           0
ST. JOSEPH                 65 64                N/A           0
$$

ILZ025>027-034>036-040-047-049-050-058-095>099-050800-
WEST-CENTRAL ILLINOIS

CITY           SKY/WX    TMP DP  RH WIND       PRES   REMARKS
QUINCY         CLEAR     69  63  81 S7        30.05R
GALESBURG*     CLEAR     64  60  87 S3        30.05R
MACOMB*        CLEAR     61  60  97 S3        30.06S
JACKSONVILLE*  CLEAR     67  64  89 SE3       30.05S
PITTSFIELD*    CLEAR     65  63  91 CALM      30.06S
$$

ILZ028>032-037-038-041>044-048-051>054-059>061-050800-
CENTRAL ILLINOIS

CITY           SKY/WX    TMP DP  RH WIND       PRES   REMARKS
PONTIAC        CLEAR     63  62  97 CALM      30.06R FOG
BLOOMINGTON    CLEAR     65  61  87 S6        30.07R
DECATUR        CLEAR     63  59  87 CALM      30.06R
PEORIA         CLEAR     69  60  73 CALM      30.05R
LACON*         CLEAR     62  59  91 CALM      30.04R
LINCOLN*       CLEAR     64  61  90 CALM      30.06R
SPRINGFIELD    CLEAR     65  61  87 CALM      30.05S FOG
TAYLORVILLE    CLEAR     61  61 100 CALM      30.05S FOG
$$

ILZ033-039-045-046-055>057-062-063-050800-
EAST-CENTRAL ILLINOIS

CITY           SKY/WX    TMP DP  RH WIND       PRES   REMARKS
CHAMPAIGN      CLEAR     61  58  90 SE3       30.06S
DANVILLE*      CLEAR     59  59  98 CALM      30.04S FOG
RANTOUL*       CLEAR     65  63  94 CALM      30.06S
MATTOON        CLEAR     63  61  93 CALM      30.04S
PARIS*         CLEAR     61  61  99 CALM      30.06S FOG
$$

ILZ079-100>102-050800-
SOUTHWEST ILLINOIS

CITY           SKY/WX    TMP DP  RH WIND       PRES   REMARKS
ALTON          CLEAR     64  64 100 CALM      30.05S FOG
BELLEVILLE     CLEAR     66  66 100 CALM      30.04R
CAHOKIA*       CLEAR     67  63  87 SW3       30.05R
SPARTA*        MOCLDY    68  65  90 CALM      30.05S
$$

ILZ064>066-069>071-074>076-080>082-084>086-088>090-092>094-050800-
SOUTH-CENTRAL ILLINOIS

CITY           SKY/WX    TMP DP  RH WIND       PRES   REMARKS
CARBONDALE     PTCLDY    69  68  96 CALM      30.04R FOG
CAIRO*         MOCLDY    70  70 100 CALM      30.04R FOG
EFFINGHAM*     PTCLDY    64  62  91 CALM      30.06S FOG
MARION         MOCLDY    68  68 100 CALM      30.05R FOG
MT. VERNON     MOCLDY    64  59  82 CALM      30.05S VSB 1/4
CENTRALIA*     PTCLDY    64  62  93 CALM      30.05R FOG
SALEM*         PTCLDY    67  64  90 CALM      30.05S FOG
$$

ILZ067-068-072-073-078-083-087-091-050800-
SOUTHEAST ILLINOIS

CITY           SKY/WX    TMP DP  RH WIND       PRES   REMARKS
LAWRENCEVILLE  MOCLDY    69  65  86 NE3       30.04R FOG
FLORA*         MOCLDY    66  65  97 N5        30.04S FOG
FAIRFIELD*     MOCLDY    68  67  98 CALM      30.03S FOG
HARRISBURG*    CLOUDY    68  68 100 CALM      30.04S FOG
ROBINSON*      MOCLDY    65  64  97 CALM      30.05S FOG
CARMI*         CLOUDY    69  64  83 CALM      30.02S HAZE
$$

ABBREVIATIONS USED IN REMARKS
   TC - TEMPERATURE IN CELSIUS
  WCI - WIND CHILL INDEX
   HX - HEAT INDEX
  VSB - VISIBILITY
$$



USA.gov is the U.S. government's official web portal to all federal, state and local government web resources and services.